Regional Weather Roundup
Issued by NWS Portland, ME

Current Version | Previous Version | Text Only | Print | Product List | Glossary On
Versions: 1 2 3 4 5 6 7 8 9 10 11 12 13 14 15 16 17 18 19 20 21 22 23 24 25 26 27 28 29 30 31 32 33 34 35 36 37 38 39 40 41 42 43 44 45 46 47 48 49 50
000
ASUS41 KGYX 311810
RWRGYX
WEATHER ROUNDUP FOR MAINE AND NEW HAMPSHIRE
NATIONAL WEATHER SERVICE GRAY ME
200 PM EDT MON AUG 31 2015

MEZ002-005-006-010-012-015-018-020-021-024-026-027-029-311900-
MAINE

CITY           SKY/WX    TMP DP  RH WIND       PRES   REMARKS
PORTLAND       MOSUNNY   84  63  49 W17G25    29.85F
6HR MIN TEMP:  69; 6HR MAX TEMP:  84;

SANFORD        MOSUNNY   84  61  45 W12G24    29.88F
BAR HARBOR     PTSUNNY   81  64  57 SW8G18    29.81S
WISCASSET      MOSUNNY   84  61  45 VRB5      29.85F
6HR MIN TEMP:  66; 6HR MAX TEMP:  84;

ROCKLAND       PTSUNNY   81  61  50 SW10G17   29.82F
FRYEBURG       MOSUNNY   84  67  56 VRB6      29.87F
6HR MIN TEMP:  68; 6HR MAX TEMP:  85;

LEWISTONAUBURN CLOUDY    81 N/A N/A W5        29.86F
AUGUSTA        PTSUNNY   80  62  54 SW10      29.84F
6HR MIN TEMP:  67; 6HR MAX TEMP:  81;

WATERVILLE     MOSUNNY   81  63  54 W13G20    29.80F
BANGOR         PTSUNNY   80  61  52 W15G26    29.80F
6HR MIN TEMP:  65; 6HR MAX TEMP:  81;

GREENVILLE       N/A     72  59  63 VRB5      29.81F
6HR MIN TEMP:  63; 6HR MAX TEMP:  76;

MILLINOCKET    CLOUDY    79  61  53 W9G20     29.78F
6HR MIN TEMP:  69; 6HR MAX TEMP:  79;

HOULTON        CLOUDY    75  61  61 SW9       29.71F
6HR MIN TEMP:  65; 6HR MAX TEMP:  77;

PRESQUE ISLE   MOSUNNY   75  57  53 W17G26    29.70F
6HR MIN TEMP:  66; 6HR MAX TEMP:  77;

FRENCHVILLE    CLOUDY    72  59  63 W12G26    29.67F
6HR MIN TEMP:  63; 6HR MAX TEMP:  75;

CARIBOU        MOSUNNY   76  60  57 W16G26    29.68F
6HR MIN TEMP:  64; 6HR MAX TEMP:  76;

$$

NHZ002-005-008-009-011-012-014-311900-
NEW HAMPSHIRE

CITY           SKY/WX    TMP DP  RH WIND       PRES   REMARKS
PORTSMOUTH     MOSUNNY   86  63  45 W13G21    29.86F
ROCHESTER      PTSUNNY   85  62  46 VRB7      29.88F
6HR MIN TEMP:  68; 6HR MAX TEMP:  85;

NASHUA         MOSUNNY   86  64  47 NW12G18   29.91F
MANCHESTER     PTSUNNY   86  61  42 W15G22    29.89F
6HR MIN TEMP:  70; 6HR MAX TEMP:  86;

CONCORD        PTSUNNY   83  63  50 W8G17     29.90F
6HR MIN TEMP:  68; 6HR MAX TEMP:  86;

LACONIA        PTSUNNY   82  63  51 W13G23    29.88F
PLYMOUTH       PTSUNNY   82  62  50 W9G16     29.89F
BERLIN         CLOUDY    78  61  55 VRB5      29.90F
6HR MIN TEMP:  58; 6HR MAX TEMP:  78;

WHITEFIELD     CLOUDY    76  63  64 W5        29.92F
6HR MIN TEMP:  61; 6HR MAX TEMP:  77;

JAFFREY        MOSUNNY   81  62  52 W10G17    29.97F
6HR MIN TEMP:  66; 6HR MAX TEMP:  82;

KEENE          SUNNY     82  63  51 W10G18    29.94F
LEBANON        MOSUNNY   85  62  46 NW12G18   29.91F
6HR MIN TEMP:  61; 6HR MAX TEMP:  86;

MT WASHINGTON  FOG       52  52 100 W67G76      N/A  VSB 0
6HR MIN TEMP:  47; 6HR MAX TEMP:  52;

$$

VTZ005-007-008-311900-
VERMONT

CITY           SKY/WX    TMP DP  RH WIND       PRES   REMARKS
ST JOHNSBURY     N/A     79  61  53 MISG      29.88F
MONTPELIER     PTSUNNY   78  62  57 W10G21    29.96F
BURLINGTON     PTSUNNY   84  60  44 W9        29.91F
$$

MAZ007-012-024-CTZ003-RIZ002-NYZ038-NYZ072-311900-
SOUTHERN NEW ENGLAND AND NY

CITY           SKY/WX    TMP DP  RH WIND       PRES   REMARKS
BOSTON         MOSUNNY   88  61  40 W20       29.90F
WORCESTER      MOSUNNY   82  62  50 W13       29.98F
NANTUCKET      MOSUNNY   80  71  74 W17       29.95F
PROVIDENCE     PTSUNNY   86  64  47 W15       29.95F
HARTFORD       PTSUNNY   87  66  49 W12       29.95F
ALBANY         PTSUNNY   84  64  50 W13       29.97F
NEW YORK CITY  PTSUNNY   89  63  41 W10       29.99F HX  90
$$

ANZ081-ANZ082-ANZ150-NHZ014-MEZ023>029-311900-
COASTAL MARINE OBSERVATIONS

STATION/POSITION TIME  TEMP    WIND        PRES    WAVE
                       AIR SEA DIR/SP/G            HT/PER
                 (UTC) (F)     (DEG/KT/KT) (MB)    (FT/S)
MOUNT DESERT ROC 1800   61     230/ 18/ 19 1010.3F
MATINICUS ROCK   1800          240/ 15/ 15 1010.4F
ISLE OF SHOALS   1800   82     270/ 18/ 19 1010.9F
JEFFREYS LEDGE   1703      70                N/A     2/ 9
CASHES LEDGE BUO 1750   70                 1011.2F   2/10
GEORGES BANK BUO 1750   72 69  260/ 12/ 16 1013.7F   3/ 9
$$

.............KEY..............
   WCI - WIND CHILL
   TC  - TEMPERATURE IN CELSIUS
   VSB - VISIBILITY IN MILES
   HX  - HEAT INDEX
   FAIR- INDICATES FEW OR NO CLOUDS BELOW 12,000 FT, WITH NO
         SIGNIFICANT WEATHER AND/OR OBSTRUCTIONS TO VISIBILITY.




USA.gov is the U.S. government's official web portal to all federal, state and local government web resources and services.